Regional Weather Roundup
Issued by NWS

Home | Current Version | Previous Version | Text Only | Print | Product List | Glossary Off
Versions: 1 2 3 4 5 6 7 8 9 10 11 12 13 14 15 16 17 18 19 20 21 22 23 24 25 26 27 28 29 30 31 32 33 34 35 36 37 38 39 40 41 42 43 44 45 46 47 48 49 50

000
ASUS44 KMEG 041600
RWRTN
TENNESSEE HOURLY STATE WEATHER ROUNDUP
NATIONAL WEATHER SERVICE MEMPHIS TN
1100 AM CDT FRI SEP 04 2015

TNZ002-004-019-021-049-052-054-088>092-041700-
WEST TENNESSEE

CITY           SKY/WX    TMP DP  RH WIND       PRES   REMARKS
MEMPHIS INTL   MOSUNNY   89  70  53 CALM      30.03S HX  94
NWS MEMPHIS      N/A     90 N/A N/A MISG        N/A
JACKSON        SUNNY     87  72  60 SE3       30.04S HX  93
DYERSBURG      SUNNY     88  72  58 E6        30.04S HX  94
UNION CITY     SUNNY     88  72  58 E3        30.03F HX  94
PARIS          SUNNY     84  66  54 VRB3      30.06S
LEXINGTON      SUNNY     88  70  55 S5        30.04S HX  92
$$

TNZ008-025-027-028-033-062-065-066-041700-
NORTH MIDDLE TENNESSEE

CITY           SKY/WX    TMP DP  RH WIND       PRES   REMARKS
NASHVILLE      SUNNY     89  65  44 E5        30.06S HX  91
CLARKSVILLE    SUNNY     88  68  51 CALM      30.05S HX  91
COOKEVILLE     SUNNY     88  72  58 CALM      30.07S HX  94
CROSSVILLE     SUNNY     84  64  50 VRB5      30.13S
$$

TNZ061-075-076-078-094-096-097-041700-
SOUTH MIDDLE TENNESSEE

CITY           SKY/WX    TMP DP  RH WIND       PRES   REMARKS
FAYETTEVILLE   SUNNY     84  70  61 CALM      30.06S
TULLAHOMA      SUNNY     86  70  58 CALM      30.08F HX  90
WINCHESTER     SUNNY     86  70  58 CALM      30.06F HX  90
MCMINNVILLE    SUNNY     84  72  65 NE7       30.08S
COLUMBIA       SUNNY     90  73  58 CALM      30.04S HX  98
SHELBYVILLE    SUNNY     88  72  58 CALM      30.07S HX  94
$$

TNZ017-018-042-046-047-041700-
NORTHEAST TENNESSEE

CITY           SKY/WX    TMP DP  RH WIND       PRES   REMARKS
TRI CITIES     MOSUNNY   82  67  60 CALM      30.11S
ELIZABETHTON   SUNNY     81  66  61 S3        30.10S
$$

TNZ012-013-036-069-073-074-041700-
CENTRAL EAST TENNESSEE

CITY           SKY/WX    TMP DP  RH WIND       PRES   REMARKS
KNOXVILLE      SUNNY     85  69  58 E8        30.06F
OAK RIDGE      SUNNY     85  68  56 E5        30.08S
GATLINBURG     SUNNY     86  66  51 CALM      30.06F
$$

TNZ083-085-099-041700-
SOUTHEAST TENNESSEE

CITY           SKY/WX    TMP DP  RH WIND       PRES   REMARKS
CHATTANOOGA    MOSUNNY   85  69  58 NE7       30.05S
$$

SKY/WX REPORTED AS FAIR MEANS FEW OR NO CLOUDS BELOW
12 THOUSAND FEET.



USA.gov is the U.S. government's official web portal to all federal, state and local government web resources and services.